TimeBST,TemperatureF,Dew PointF,Humidity,Sea Level PressureIn,VisibilityMPH,Wind Direction,Wind SpeedMPH,Gust SpeedMPH,PrecipitationIn,Events,Conditions,WindDirDegrees,DateUTC
6:50 AM,47,42,76,29.91,17,ENE,11.5,,,,Overcast,60,2012-10-26 05:50:00
6:50 AM,46.4,42.8,87,29.92,6.2,NE,15.0,-,N/A,Rain,Light Rain,55,2012-10-26 05:50:00
7:20 AM,46.4,41.0,81,29.92,6.2,NE,16.1,-,N/A,Rain,Light Rain,40,2012-10-26 06:20:00
7:50 AM,46.4,42.8,87,29.89,6.2,NE,15.0,-,N/A,Rain,Light Rain,40,2012-10-26 06:50:00
8:20 AM,44.6,41.0,87,29.92,6.2,NE,13.8,-,N/A,Rain,Light Rain,40,2012-10-26 07:20:00
8:50 AM,46.4,42.8,87,29.92,6.2,NE,15.0,-,N/A,Rain,Light Rain,40,2012-10-26 07:50:00
9:20 AM,44.6,41.0,87,29.92,6.2,NE,13.8,-,N/A,Rain,Light Rain,40,2012-10-26 08:20:00
9:50 AM,45,42,83,29.92,8,NE,11.5,,,,Overcast,50,2012-10-26 08:50:00
9:50 AM,44.6,42.8,93,29.92,6.2,NE,12.7,-,N/A,Rain,Light Rain,40,2012-10-26 08:50:00
10:20 AM,44.6,41.0,87,29.92,6.2,NE,11.5,-,N/A,Rain,Light Rain,40,2012-10-26 09:20:00
10:50 AM,44.6,41.0,87,29.89,-9999.0,NE,10.4,-,N/A,Rain,Light Rain,40,2012-10-26 09:50:00
11:20 AM,44.6,41.0,87,29.89,6.2,NE,11.5,-,N/A,Rain,Light Rain,50,2012-10-26 10:20:00
11:50 AM,46.4,41.0,81,29.89,6.2,NE,15.0,-,N/A,,Mostly Cloudy,40,2012-10-26 10:50:00
12:20 PM,46.4,41.0,81,29.86,-9999.0,North,-9999.0,-,N/A,,Mostly Cloudy,0,2012-10-26 11:20:00
12:50 PM,46.4,39.2,76,29.86,6.2,NE,12.7,-,N/A,,Mostly Cloudy,40,2012-10-26 11:50:00
1:20 PM,46.4,39.2,76,29.86,6.2,NE,17.3,-,N/A,,Mostly Cloudy,40,2012-10-26 12:20:00
1:50 PM,44.6,37.4,76,29.86,6.2,NNE,17.3,-,N/A,,Mostly Cloudy,30,2012-10-26 12:50:00
2:20 PM,44.6,39.2,81,29.86,6.2,NNE,15.0,-,N/A,,Mostly Cloudy,30,2012-10-26 13:20:00
3:20 PM,46.4,37.4,71,29.83,6.2,NNE,10.4,-,N/A,,Mostly Cloudy,20,2012-10-26 14:20:00
3:50 PM,47,37,58,29.85,19,NNE,11.5,,,,Scattered Clouds,30,2012-10-26 14:50:00
3:50 PM,46.4,37.4,71,29.83,6.2,NNE,15.0,-,N/A,,Scattered Clouds,30,2012-10-26 14:50:00
4:20 PM,46.4,37.4,71,29.83,6.2,NNE,12.7,-,N/A,,Mostly Cloudy,30,2012-10-26 15:20:00
4:50 PM,44.6,37.4,76,29.83,6.2,NNE,13.8,-,N/A,,Mostly Cloudy,20,2012-10-26 15:50:00
5:20 PM,44.6,37.4,76,29.83,6.2,North,16.1,-,N/A,,Mostly Cloudy,10,2012-10-26 16:20:00
5:50 PM,44.6,37.4,76,29.86,6.2,NNE,15.0,-,N/A,,Mostly Cloudy,20,2012-10-26 16:50:00
6:20 PM,44.6,35.6,71,29.86,6.2,North,15.0,-,N/A,,Mostly Cloudy,10,2012-10-26 17:20:00
6:50 PM,42.8,35.6,76,29.86,6.2,North,15.0,-,N/A,,Mostly Cloudy,10,2012-10-26 17:50:00
7:20 PM,42.8,33.8,70,29.86,6.2,NNE,16.1,28.8,N/A,,Mostly Cloudy,20,2012-10-26 18:20:00
7:50 PM,42.8,35.6,76,29.86,6.2,NNE,16.1,27.6,N/A,,Mostly Cloudy,20,2012-10-26 18:50:00
8:20 PM,41.0,35.6,81,29.86,6.2,North,13.8,-,N/A,,Mostly Cloudy,10,2012-10-26 19:20:00
8:50 PM,41.0,35.6,81,29.86,6.2,NNE,13.8,-,N/A,,Mostly Cloudy,20,2012-10-26 19:50:00
9:20 PM,41.0,33.8,76,29.86,6.2,NNE,15.0,-,N/A,,Mostly Cloudy,20,2012-10-26 20:20:00
9:50 PM,41,33,64,29.89,25,NNE,12.7,,,,Scattered Clouds,20,2012-10-26 20:50:00